PP5FMM-13 Weather Reports


time (UTC)temp
F
wind
direction
speed
knots
gust
knots
rain 1hr
in
rain 24hr
in
rain mn
in
humidity
%
barometer
mb
20260905003831 75 0.0 0.0 0.00 0.00 0.00 87 1016.8
20260905003331 75 0.0 0.0 0.00 0.00 0.00 88 1016.5
20260905002831 75 0.0 0.0 0.00 0.00 0.00 87 1016.7
20260905002331 75 0.0 0.0 0.00 0.00 0.00 88 1016.6
20260905001831 75 0.0 0.0 0.00 0.00 0.00 88 1016.5
20260905001331 75 0.0 0.0 0.00 0.00 0.00 87 1016.4
20260905000831 75 0.0 0.0 0.00 0.00 0.00 88 1016.2
20260905000332 75 0.0 0.0 0.00 0.00 0.00 89 1016.1
20260904235831 75 0.0 0.0 0.00 0.00 0.00 89 1016.2
20260904235331 75 0.0 0.0 0.00 0.00 0.00 89 1016.1
20260904234831 75 0.0 0.0 0.00 0.00 0.00 90 1016.1
20260904234331 75 0.0 0.0 0.00 0.00 0.00 89 1016.2
20260904233831 75 0.0 0.0 0.00 0.00 0.00 89 1016.2
20260904233331 75 0.0 0.0 0.00 0.00 0.00 88 1016.4
20260904232831 75 0.0 0.0 0.00 0.00 0.00 88 1016.3
20260904232331 75 0.0 0.0 0.00 0.00 0.00 88 1016.3
20260904231831 76 0.0 0.0 0.00 0.00 0.00 88 1016.2
20260904231331 76 0.0 0.0 0.00 0.00 0.00 88 1016.2
20260904230831 76 0.0 0.0 0.00 0.00 0.00 89 1016.4
20260904230330 76 0.0 0.0 0.00 0.00 0.00 89 1016.4
20260904225831 76 0.0 0.0 0.00 0.00 0.00 87 1016.3
20260904225330 75 0.0 0.0 0.00 0.00 0.00 87 1016.1
20260904224830 76 0.0 0.0 0.00 0.00 0.00 86 1016.1
20260904224330 76 0.0 0.0 0.00 0.00 0.00 85 1016.0
20260904223831 76 0.0 0.0 0.00 0.00 0.00 85 1015.9
20260904223330 75 0.0 0.0 0.00 0.00 0.00 85 1015.7
20260904222831 76 0.0 0.0 0.00 0.00 0.00 84 1015.6
20260904222331 76 0.0 0.0 0.00 0.00 0.00 83 1015.6
20260904221830 76 0.0 0.0 0.00 0.00 0.00 84 1015.7
20260904221330 75 0.0 0.0 0.00 0.00 0.00 84 1015.8
20260904220831 75 0.0 0.0 0.00 0.00 0.00 83 1015.5
20260904220330 75 0.0 0.0 0.00 0.00 0.00 82 1015.4
20260904215831 75 0.0 0.0 0.00 0.00 0.00 81 1015.5
20260904215331 75 0.0 0.0 0.00 0.00 0.00 82 1015.5
20260904214831 75 0.0 0.0 0.00 0.00 0.00 83 1015.8
20260904214331 75 0.0 0.0 0.00 0.00 0.00 81 1015.5
20260904213831 74 0.0 0.0 0.00 0.00 0.00 80 1015.5
20260904213331 74 0.0 0.0 0.00 0.00 0.00 80 1015.4
20260904212831 74 0.0 0.0 0.00 0.00 0.00 80 1015.4
20260904212330 74 0.0 0.0 0.00 0.00 0.00 80 1015.6
20260904211831 74 0.0 0.0 0.00 0.00 0.00 75 1015.3
20260904211331 74 0.0 0.0 0.00 0.00 0.00 73 1015.4
20260904210831 74 0.0 0.0 0.00 0.00 0.00 78 1015.5
20260904210330 75 0.0 0.0 0.00 0.00 0.00 77 1015.4
20260904205831 74 0.0 0.0 0.00 0.00 0.00 78 1015.3
20260904205330 74 0.0 0.0 0.00 0.00 0.00 75 1015.1
20260904204831 74 0.0 0.0 0.00 0.00 0.00 74 1015.2
20260904204331 74 0.0 0.0 0.00 0.00 0.00 78 1015.0
20260904203831 74 0.0 0.0 0.00 0.00 0.00 72 1014.9
20260904203331 74 0.0 0.0 0.00 0.00 0.00 74 1015.2
20260904202831 74 0.0 0.0 0.00 0.00 0.00 73 1015.3
20260904202330 74 0.0 0.0 0.00 0.00 0.00 74 1015.2
20260904201831 75 0.0 0.0 0.00 0.00 0.00 69 1015.4
20260904201330 74 0.0 0.0 0.00 0.00 0.00 70 1015.2
20260904200831 74 0.0 0.0 0.00 0.00 0.00 72 1015.1
20260904200330 74 0.0 0.0 0.00 0.00 0.00 70 1015.2
20260904195831 74 0.0 0.0 0.00 0.00 0.00 74 1015.5
20260904195331 74 0.0 0.0 0.00 0.00 0.00 70 1015.3
20260904194831 74 0.0 0.0 0.00 0.00 0.00 74 1015.2
20260904194330 74 0.0 0.0 0.00 0.00 0.00 73 1015.2
20260904193830 74 0.0 0.0 0.00 0.00 0.00 73 1015.1
20260904193331 74 0.0 0.0 0.00 0.00 0.00 74 1014.9
20260904192830 74 0.0 0.0 0.00 0.00 0.00 71 1014.8
20260904192330 73 0.0 0.0 0.00 0.00 0.00 70 1014.7
20260904191830 74 0.0 0.0 0.00 0.00 0.00 75 1014.5
20260904191331 74 0.0 0.0 0.00 0.00 0.00 74 1014.4
20260904190831 74 0.0 0.0 0.00 0.00 0.00 70 1014.3
20260904190330 74 0.0 0.0 0.00 0.00 0.00 64 1014.2
20260904185830 74 0.0 0.0 0.00 0.00 0.00 68 1014.1
20260904185331 73 0.0 0.0 0.00 0.00 0.00 71 1013.9
20260904184831 73 0.0 0.0 0.00 0.00 0.00 71 1013.8
20260904184331 72 0.0 0.0 0.00 0.00 0.00 69 1013.7
20260904183830 71 0.0 0.0 0.00 0.00 0.00 67 1013.6
20260904183330 71 0.0 0.0 0.00 0.00 0.00 71 1013.6
20260904182831 71 0.0 0.0 0.00 0.00 0.00 69 1013.4
20260904182330 71 0.0 0.0 0.00 0.00 0.00 68 1013.6
20260904181830 72 0.0 0.0 0.00 0.00 0.00 68 1013.6
20260904181330 72 0.0 0.0 0.00 0.00 0.00 67 1013.5
20260904180831 72 0.0 0.0 0.00 0.00 0.00 67 1013.5
20260904180331 72 0.0 0.0 0.00 0.00 0.00 66 1013.6
20260904175831 72 0.0 0.0 0.00 0.00 0.00 65 1013.6
20260904175330 72 0.0 0.0 0.00 0.00 0.00 65 1013.7
20260904174831 72 0.0 0.0 0.00 0.00 0.00 64 1013.9
20260904174330 72 0.0 0.0 0.00 0.00 0.00 69 1014.0
20260904173830 73 0.0 0.0 0.00 0.00 0.00 71 1014.0
20260904173330 72 0.0 0.0 0.00 0.00 0.00 70 1013.8
20260904172830 73 0.0 0.0 0.00 0.00 0.00 71 1013.6
20260904172331 74 0.0 0.0 0.00 0.00 0.00 68 1013.5
20260904171830 74 0.0 0.0 0.00 0.00 0.00 67 1013.7
20260904171331 74 0.0 0.0 0.00 0.00 0.00 65 1013.7
20260904170830 75 0.0 0.0 0.00 0.00 0.00 65 1013.6
20260904170330 74 0.0 0.0 0.00 0.00 0.00 67 1013.4
20260904165831 74 0.0 0.0 0.00 0.00 0.00 66 1013.5
20260904165331 74 0.0 0.0 0.00 0.00 0.00 67 1013.4
20260904164830 75 0.0 0.0 0.00 0.00 0.00 63 1013.5
20260904164330 75 0.0 0.0 0.00 0.00 0.00 64 1013.7
20260904163830 75 0.0 0.0 0.00 0.00 0.00 68 1013.7
20260904163331 76 0.0 0.0 0.00 0.00 0.00 70 1013.8
20260904162831 76 0.0 0.0 0.00 0.00 0.00 67 1013.8
20260904162330 77 0.0 0.0 0.00 0.00 0.00 70 1013.7
20260904161830 77 0.0 0.0 0.00 0.00 0.00 69 1013.6
20260904161330 78 0.0 0.0 0.00 0.00 0.00 69 1013.8
20260904160830 79 0.0 0.0 0.00 0.00 0.00 63 1013.8
20260904160331 79 0.0 0.0 0.00 0.00 0.00 64 1013.8
20260904155831 79 0.0 0.0 0.00 0.00 0.00 62 1013.9
20260904155330 79 0.0 0.0 0.00 0.00 0.00 61 1014.1
20260904154830 79 0.0 0.0 0.00 0.00 0.00 59 1013.9
20260904154331 79 0.0 0.0 0.00 0.00 0.00 57 1014.1
20260904153830 80 0.0 0.0 0.00 0.00 0.00 58 1014.1
20260904153330 80 0.0 0.0 0.00 0.00 0.00 58 1014.3
20260904152830 80 0.0 0.0 0.00 0.00 0.00 57 1014.2
20260904152331 80 0.0 0.0 0.00 0.00 0.00 57 1014.4
20260904151830 80 0.0 0.0 0.00 0.00 0.00 59 1014.1
20260904151330 80 0.0 0.0 0.00 0.00 0.00 59 1013.8
20260904150830 80 0.0 0.0 0.00 0.00 0.00 60 1013.7
20260904150331 80 0.0 0.0 0.00 0.00 0.00 59 1013.7
20260904145830 80 0.0 0.0 0.00 0.00 0.00 58 1014.0
20260904145331 80 0.0 0.0 0.00 0.00 0.00 62 1014.4
20260904144830 80 0.0 0.0 0.00 0.00 0.00 59 1014.4
20260904144343 80 0.0 0.0 0.00 0.00 0.00 61 1014.6
20260904143830 80 0.0 0.0 0.00 0.00 0.00 61 1014.6
20260904143331 80 0.0 0.0 0.00 0.00 0.00 59 1014.6
20260904142830 80 0.0 0.0 0.00 0.00 0.00 58 1014.5
20260904142330 80 0.0 0.0 0.00 0.00 0.00 58 1014.6
20260904141830 80 0.0 0.0 0.00 0.00 0.00 57 1014.6
20260904141330 80 0.0 0.0 0.00 0.00 0.00 58 1014.5
20260904140831 81 0.0 0.0 0.00 0.00 0.00 59 1014.6
20260904140330 81 0.0 0.0 0.00 0.00 0.00 59 1014.7
20260904135830 80 0.0 0.0 0.00 0.00 0.00 59 1014.9
20260904135330 81 0.0 0.0 0.00 0.00 0.00 59 1014.9
20260904134831 80 0.0 0.0 0.00 0.00 0.00 60 1015.1
20260904134330 80 0.0 0.0 0.00 0.00 0.00 61 1015.1
20260904133830 80 0.0 0.0 0.00 0.00 0.00 59 1015.3
20260904133330 80 0.0 0.0 0.00 0.00 0.00 60 1015.4
20260904132830 81 0.0 0.0 0.00 0.00 0.00 59 1015.2
20260904132331 81 0.0 0.0 0.00 0.00 0.00 59 1015.1
20260904131830 82 0.0 0.0 0.00 0.00 0.00 59 1015.0
20260904131330 81 0.0 0.0 0.00 0.00 0.00 59 1015.1
20260904130830 82 0.0 0.0 0.00 0.00 0.00 60 1015.2
20260904130331 83 0.0 0.0 0.00 0.00 0.00 63 1015.4
20260904125830 83 0.0 0.0 0.00 0.00 0.00 63 1015.3
20260904125330 83 0.0 0.0 0.00 0.00 0.00 61 1015.3
20260904124830 83 0.0 0.0 0.00 0.00 0.00 64 1015.4
20260904124330 83 0.0 0.0 0.00 0.00 0.00 67 1015.2
20260904123831 83 0.0 0.0 0.00 0.00 0.00 68 1015.2
20260904123330 83 0.0 0.0 0.00 0.00 0.00 71 1015.3
20260904122830 82 0.0 0.0 0.00 0.00 0.00 71 1015.4
20260904122330 83 0.0 0.0 0.00 0.00 0.00 70 1015.7
20260904121830 82 0.0 0.0 0.00 0.00 0.00 71 1015.5
20260904121330 82 0.0 0.0 0.00 0.00 0.00 71 1015.3
20260904120830 82 0.0 0.0 0.00 0.00 0.00 70 1015.4
20260904120331 82 0.0 0.0 0.00 0.00 0.00 72 1015.2
20260904115831 82 0.0 0.0 0.00 0.00 0.00 72 1015.4
20260904115330 82 0.0 0.0 0.00 0.00 0.00 71 1015.2
20260904114830 81 0.0 0.0 0.00 0.00 0.00 74 1015.0
20260904114330 81 0.0 0.0 0.00 0.00 0.00 76 1014.9
20260904113830 81 0.0 0.0 0.00 0.00 0.00 78 1015.0
20260904113330 80 0.0 0.0 0.00 0.00 0.00 76 1014.9
20260904112830 80 0.0 0.0 0.00 0.00 0.00 82 1014.8
20260904112331 78 0.0 0.0 0.00 0.00 0.00 84 1014.8
20260904111830 78 0.0 0.0 0.00 0.00 0.00 80 1014.7
20260904111330 77 0.0 0.0 0.00 0.00 0.00 88 1014.6
20260904110830 76 0.0 0.0 0.00 0.00 0.00 83 1014.5
20260904110331 77 0.0 0.0 0.00 0.00 0.00 87 1014.4
20260904105830 77 0.0 0.0 0.00 0.00 0.00 86 1014.5
20260904105331 76 0.0 0.0 0.00 0.00 0.00 86 1014.5
20260904104830 75 0.0 0.0 0.00 0.00 0.00 85 1014.4
20260904104330 76 0.0 0.0 0.00 0.00 0.00 95 1014.5
20260904103833 75 0.0 0.0 0.00 0.00 0.00 96 1014.4
20260904103330 75 0.0 0.0 0.00 0.00 0.00 91 1014.4
20260904102830 75 0.0 0.0 0.00 0.00 0.00 97 1014.3
20260904102330 75 0.0 0.0 0.00 0.00 0.00 98 1014.2
20260904101830 75 0.0 0.0 0.00 0.00 0.00 98 1014.2
20260904101330 75 0.0 0.0 0.00 0.00 0.00 98 1014.2
20260904100830 75 0.0 0.0 0.00 0.00 0.00 97 1014.1
20260904100330 75 0.0 0.0 0.00 0.00 0.00 98 1014.1
20260904095830 75 0.0 0.0 0.00 0.00 0.00 98 1014.2
20260904095330 75 0.0 0.0 0.00 0.00 0.00 99 1014.1
20260904094830 75 0.0 0.0 0.00 0.00 0.00 10 1014.0
20260904094330 75 0.0 0.0 0.00 0.00 0.00 10 1014.0
20260904093830 75 0.0 0.0 0.00 0.00 0.00 10 1013.8
20260904093330 75 0.0 0.0 0.00 0.00 0.00 10 1013.7
20260904092830 75 0.0 0.0 0.00 0.00 0.00 10 1013.6
20260904092330 75 0.0 0.0 0.00 0.00 0.00 10 1013.6
20260904091830 75 0.0 0.0 0.00 0.00 0.00 10 1013.5
20260904091330 75 0.0 0.0 0.00 0.00 0.00 10 1013.3
20260904090830 75 0.0 0.0 0.00 0.00 0.00 99 1013.5
20260904090330 75 0.0 0.0 0.00 0.00 0.00 99 1013.4
20260904085830 75 0.0 0.0 0.00 0.00 0.00 99 1013.3
20260904085330 75 0.0 0.0 0.00 0.00 0.00 99 1013.1
20260904084830 75 0.0 0.0 0.00 0.00 0.00 99 1013.1
20260904084330 75 0.0 0.0 0.00 0.00 0.00 99 1013.1
20260904083830 75 0.0 0.0 0.00 0.00 0.00 99 1013.1
20260904083330 75 0.0 0.0 0.00 0.00 0.00 99 1013.0
20260904082830 75 0.0 0.0 0.00 0.00 0.00 99 1013.0
20260904082330 75 0.0 0.0 0.00 0.00 0.00 99 1012.9
20260904081830 75 0.0 0.0 0.00 0.00 0.00 99 1012.8
20260904081330 75 0.0 0.0 0.00 0.00 0.00 99 1012.7
20260904080830 75 0.0 0.0 0.00 0.00 0.00 10 1012.5
20260904080330 75 0.0 0.0 0.00 0.00 0.00 99 1012.5
20260904075830 75 0.0 0.0 0.00 0.00 0.00 99 1012.5
20260904075330 75 0.0 0.0 0.00 0.00 0.00 99 1012.3
20260904074830 75 0.0 0.0 0.00 0.00 0.00 99 1012.2
20260904074330 75 0.0 0.0 0.00 0.00 0.00 99 1012.0
20260904073830 75 0.0 0.0 0.00 0.00 0.00 10 1012.0
20260904073330 75 0.0 0.0 0.00 0.00 0.00 99 1012.0
20260904072830 75 0.0 0.0 0.00 0.00 0.00 99 1011.6
20260904072330 76 0.0 0.0 0.00 0.00 0.00 98 1011.6
20260904071830 75 0.0 0.0 0.00 0.00 0.00 99 1011.8
20260904071330 75 0.0 0.0 0.00 0.00 0.00 99 1011.8
20260904070830 75 0.0 0.0 0.00 0.00 0.00 10 1011.8
20260904070330 75 0.0 0.0 0.00 0.00 0.00 10 1011.9
20260904065830 75 0.0 0.0 0.00 0.00 0.00 99 1011.8
20260904065330 75 0.0 0.0 0.00 0.00 0.00 10 1011.8
20260904064830 75 0.0 0.0 0.00 0.00 0.00 98 1011.9
20260904064330 76 0.0 0.0 0.00 0.00 0.00 99 1011.8
20260904063830 76 0.0 0.0 0.00 0.00 0.00 98 1011.8
20260904063330 76 0.0 0.0 0.00 0.00 0.00 99 1011.7
20260904062830 76 0.0 0.0 0.00 0.00 0.00 98 1011.8
20260904062330 76 0.0 0.0 0.00 0.00 0.00 99 1011.7
20260904061830 76 0.0 0.0 0.00 0.00 0.00 99 1011.6
20260904061330 76 0.0 0.0 0.00 0.00 0.00 99 1011.5
20260904060830 76 0.0 0.0 0.00 0.00 0.00 99 1011.6
20260904060330 76 0.0 0.0 0.00 0.00 0.00 99 1011.5
20260904055830 75 0.0 0.0 0.00 0.00 0.00 97 1011.5
20260904055330 76 0.0 0.0 0.00 0.00 0.00 98 1011.4
20260904054830 76 0.0 0.0 0.00 0.00 0.00 98 1011.4
20260904054330 76 0.0 0.0 0.00 0.00 0.00 98 1011.4
20260904053830 76 0.0 0.0 0.00 0.00 0.00 99 1011.5
20260904053330 76 0.0 0.0 0.00 0.00 0.00 99 1011.7
20260904052830 75 0.0 0.0 0.00 0.00 0.00 98 1011.7
20260904052330 76 0.0 0.0 0.00 0.00 0.00 98 1011.7
20260904051830 76 0.0 0.0 0.00 0.00 0.00 98 1011.7
20260904051330 76 0.0 0.0 0.00 0.00 0.00 99 1011.9
20260904050830 76 0.0 0.0 0.00 0.00 0.00 99 1011.5
20260904050330 76 0.0 0.0 0.00 0.00 0.00 99 1011.4
20260904045830 76 0.0 0.0 0.00 0.00 0.00 98 1011.3
20260904045330 76 0.0 0.0 0.00 0.00 0.00 98 1011.4
20260904044830 76 0.0 0.0 0.00 0.00 0.00 97 1011.4
20260904044330 76 0.0 0.0 0.00 0.00 0.00 97 1011.5
20260904043830 76 0.0 0.0 0.00 0.00 0.00 96 1011.6
20260904043330 77 0.0 0.0 0.00 0.00 0.00 96 1011.6
20260904042830 77 0.0 0.0 0.00 0.00 0.00 95 1011.6
20260904042330 76 0.0 0.0 0.00 0.00 0.00 96 1011.7
20260904041830 76 0.0 0.0 0.00 0.00 0.00 96 1011.8
20260904041330 77 0.0 0.0 0.00 0.00 0.00 95 1011.6
20260904040830 77 0.0 0.0 0.00 0.00 0.00 95 1011.5
20260904040330 77 0.0 0.0 0.00 0.00 0.00 95 1011.6
20260904035830 77 0.0 0.0 0.00 0.00 0.00 95 1011.7
20260904034830 76 0.0 0.0 0.00 0.00 0.00 96 1011.8
20260904034330 77 0.0 0.0 0.00 0.00 0.00 95 1011.7
20260904033830 77 0.0 0.0 0.00 0.00 0.00 95 1011.6
20260904033330 77 0.0 0.0 0.00 0.00 0.00 95 1011.6
20260904032330 77 0.0 0.0 0.00 0.00 0.00 94 1011.7
20260904031830 77 0.0 0.0 0.00 0.00 0.00 94 1011.7
20260904031330 77 0.0 0.0 0.00 0.00 0.00 94 1011.7
20260904030830 77 0.0 0.0 0.00 0.00 0.00 93 1011.8
20260904030330 77 0.0 0.0 0.00 0.00 0.00 93 1012.0
20260904025830 77 0.0 0.0 0.00 0.00 0.00 93 1012.0
20260904025330 77 0.0 0.0 0.00 0.00 0.00 93 1012.0
20260904024830 77 0.0 0.0 0.00 0.00 0.00 92 1012.0
20260904024330 77 0.0 0.0 0.00 0.00 0.00 93 1012.0
20260904023830 77 0.0 0.0 0.00 0.00 0.00 93 1012.0
20260904023330 77 0.0 0.0 0.00 0.00 0.00 93 1012.1
20260904022830 77 0.0 0.0 0.00 0.00 0.00 93 1012.1
20260904022330 77 0.0 0.0 0.00 0.00 0.00 93 1012.2
20260904021830 77 0.0 0.0 0.00 0.00 0.00 93 1012.1
20260904021330 77 0.0 0.0 0.00 0.00 0.00 92 1012.0
20260904020830 78 0.0 0.0 0.00 0.00 0.00 92 1012.0
20260904020330 78 0.0 0.0 0.00 0.00 0.00 92 1012.0
20260904015830 78 0.0 0.0 0.00 0.00 0.00 91 1012.0
20260904015330 78 0.0 0.0 0.00 0.00 0.00 91 1012.0
20260904014830 78 0.0 0.0 0.00 0.00 0.00 91 1012.1
20260904014330 77 0.0 0.0 0.00 0.00 0.00 91 1012.3
20260904013830 78 0.0 0.0 0.00 0.00 0.00 90 1012.2
20260904013330 78 0.0 0.0 0.00 0.00 0.00 90 1012.4
20260904012830 78 0.0 0.0 0.00 0.00 0.00 91 1012.4
20260904012330 78 0.0 0.0 0.00 0.00 0.00 90 1012.5
20260904011829 78 0.0 0.0 0.00 0.00 0.00 90 1012.5
20260904011330 78 0.0 0.0 0.00 0.00 0.00 90 1012.5
20260904010830 78 0.0 0.0 0.00 0.00 0.00 90 1012.6
20260904010330 78 0.0 0.0 0.00 0.00 0.00 90 1012.4
20260904005830 78 0.0 0.0 0.00 0.00 0.00 90 1012.6
20260904005330 78 0.0 0.0 0.00 0.00 0.00 89 1012.5
20260904004830 78 0.0 0.0 0.00 0.00 0.00 90 1012.8
20260904004330 78 0.0 0.0 0.00 0.00 0.00 89 1012.7